This is the latest recevied weather packets stored in our database for station/object KC3WWU. If no packets are shown the sender has not sent any weather packets the latest 10 day(s).
| Time | Temp. | Humidity | Pressure | Rain* | Wind** | Luminosity | Snow |
|---|---|---|---|---|---|---|---|
| 1778096242 | 10° C | 99% | 1007.6 hPa | 0 mm | - | 51 W/m² | - |
| 1778095939 | 10° C | 99% | 1007.1 hPa | 0 mm | - | 53 W/m² | - |
| 1778095635 | 10° C | 99% | 1007.3 hPa | 0 mm | - | 54 W/m² | - |
| 1778095332 | 10° C | 99% | 1007.2 hPa | 0 mm | - | 50 W/m² | - |
| 1778095023 | 10° C | 99% | 1007.3 hPa | 0 mm | - | 50 W/m² | - |
| 1778094719 | 10° C | 99% | 1007.2 hPa | 0 mm | - | 51 W/m² | - |
| 1778094417 | 10° C | 99% | 1007 hPa | 0 mm | - | 63 W/m² | - |
| 1778094113 | 10° C | 99% | 1007 hPa | 0 mm | - | 72 W/m² | - |
| 1778093810 | 10° C | 99% | 1007.1 hPa | 0 mm | - | 69 W/m² | - |
| 1778093506 | 10° C | 99% | 1007.1 hPa | 0 mm | - | 51 W/m² | - |
| 1778093204 | 10° C | 99% | 1006.9 hPa | 0 mm | - | 60 W/m² | - |
| 1778092901 | 10° C | 99% | 1007 hPa | 0 mm | - | 78 W/m² | - |
| 1778092598 | 10° C | 99% | 1007 hPa | 0 mm | - | 101 W/m² | - |
| 1778092293 | 10° C | 99% | 1006.9 hPa | 0 mm | - | 81 W/m² | - |
| 1778091992 | 10° C | 99% | 1007 hPa | 0 mm | - | 67 W/m² | - |
| 1778091688 | 10° C | 99% | 1006.9 hPa | 0 mm | - | 55 W/m² | - |
| 1778091386 | 10° C | 99% | 1006.8 hPa | 0 mm | - | 56 W/m² | - |
| 1778091083 | 10.56° C | 99% | 1006.6 hPa | 0 mm | - | 53 W/m² | - |
| 1778090780 | 10.56° C | 99% | 1006.8 hPa | 0 mm | - | 69 W/m² | - |
| 1778090476 | 11.11° C | 99% | 1006.9 hPa | 0 mm | - | 84 W/m² | - |
| 1778090172 | 11.11° C | 99% | 1006.8 hPa | 0 mm | - | 79 W/m² | - |
| 1778089868 | 11.67° C | 99% | 1006.4 hPa | 0 mm | - | 64 W/m² | - |
| 1778089568 | 11.67° C | 99% | 1006.1 hPa | 0 mm | - | 98 W/m² | - |
| 1778089263 | 11.67° C | 99% | 1006.2 hPa | 0 mm | - | 142 W/m² | - |
| 1778088961 | 12.22° C | 99% | 1006.4 hPa | 0 mm | - | 142 W/m² | - |
* Rain latest hour (hover to see other rain measurements)
** Current wind speed in m/s (hover to see current wind gust speed)